Location: Byhalia Creek
(34.8270°N, 89.8040°W)
Time: 07:56:36
(UTC+00:00)

PAYLOAD A - Pass Details

Date: 22 April 2026
Orbit: 689 x 829 km, 98.6° (Epoch: 14 May)

Event Time Altitude Azimuth Distance (km) Brightness Sun altitude
Rises 10:25:45 0° 11° (NNE) 3,084 7.7 -11.1°
Reaches altitude 10° 10:28:01 10° 11° (N) 2,154 6.8 -10.6°
Maximum altitude 10:32:43 82° 284° (WNW) 700 3.7 -9.8°
Drops below altitude 10° 10:37:22 10° 197° (SSW) 2,135 5.9 -8.9°
Sets 10:39:36 0° 197° (SSW) 3,054 6.7 -8.4°
